Location: Luxembourg
(49.6000°N, 6.1500°W)
Time: 13:13:59
(UTC+01:00)

Envisat - Visible Passes

Search period start: 18 November 2017 00:00
Search period end: 28 November 2017 00:00
Orbit: 764 x 766 km, 98.2° (Epoch: 18 November)

Date Brightness Start Highest point End Pass type
(mag) Time Alt. Az. Time Alt. Az. Time Alt. Az.
18 Nov 4.8 20:26:56 19° N 20:26:56 19° N 20:28:28 10° N visible
18 Nov 5.9 22:07:08 10° NW 22:07:08 10° NW 22:07:10 10° NW visible
19 Nov 4.8 19:49:53 16° NNE 19:49:53 16° NNE 19:51:16 10° N visible
19 Nov 5.5 21:30:05 15° NNW 21:30:05 15° NNW 21:30:53 10° NNW visible
20 Nov 5.0 19:12:49 12° NNE 19:12:49 12° NNE 19:13:29 10° NNE visible
20 Nov 5.1 20:53:02 17° N 20:53:02 17° N 20:54:13 10° NNW visible
21 Nov 4.9 20:15:58 17° N 20:15:58 17° N 20:17:15 10° N visible
21 Nov 5.9 21:56:11 10° NNW 21:56:11 10° NNW 21:56:14 10° NNW visible
22 Nov 4.9 19:38:55 14° NNE 19:38:55 14° NNE 19:39:55 10° N visible
22 Nov 5.5 21:19:07 14° NNW 21:19:07 14° NNW 21:19:49 10° NNW visible
23 Nov 5.1 20:42:03 16° N 20:42:03 16° N 20:43:03 10° N visible
24 Nov 5.0 20:04:59 15° N 20:04:59 15° N 20:06:00 10° N visible
24 Nov 5.8 21:45:12 10° NNW 21:45:12 10° NNW 21:45:15 10° NNW visible
25 Nov 5.0 19:27:55 12° NNE 19:27:55 12° NNE 19:28:32 10° NNE visible
25 Nov 5.4 21:08:07 13° NNW 21:08:07 13° NNW 21:08:43 10° NNW visible
26 Nov 5.2 20:31:03 15° N 20:31:03 15° N 20:31:52 10° N visible
27 Nov 5.1 19:53:58 13° N 19:53:58 13° N 19:54:43 10° N visible
27 Nov 5.8 21:34:10 10° NNW 21:34:10 10° NNW 21:34:14 10° NNW visible
